Year,Month,Day,Hour,Minute,Value (Times are PST for temperature in C)
2017,07,12,00,00,16.30
2017,07,12,00,01,16.20
2017,07,12,00,02,16.20
2017,07,12,00,03,16.10
2017,07,12,00,04,16.00
2017,07,12,00,05,15.90
2017,07,12,00,06,15.90
2017,07,12,00,07,15.80
2017,07,12,00,08,15.70
2017,07,12,00,09,15.70
2017,07,12,00,10,15.60
2017,07,12,00,11,15.60
2017,07,12,00,12,15.60
2017,07,12,00,13,15.50
2017,07,12,00,14,15.40
2017,07,12,00,15,15.40
2017,07,12,00,16,15.40
2017,07,12,00,17,15.30
2017,07,12,00,18,15.30
2017,07,12,00,19,15.20
2017,07,12,00,20,15.20
2017,07,12,00,21,15.20
2017,07,12,00,22,15.10
2017,07,12,00,23,15.10
2017,07,12,00,24,15.10
2017,07,12,00,25,15.00
2017,07,12,00,26,15.00
2017,07,12,00,27,14.90
2017,07,12,00,28,14.90
2017,07,12,00,29,14.90
2017,07,12,00,30,14.90
2017,07,12,00,31,14.80
2017,07,12,00,32,14.80
2017,07,12,00,33,14.80
2017,07,12,00,34,14.80
2017,07,12,00,35,14.80
2017,07,12,00,36,14.80
2017,07,12,00,37,14.70
2017,07,12,00,38,14.70
2017,07,12,00,39,14.70
2017,07,12,00,40,14.70
2017,07,12,00,41,14.70
2017,07,12,00,42,14.60
2017,07,12,00,43,14.60
2017,07,12,00,44,14.60
2017,07,12,00,45,14.60
2017,07,12,00,46,14.60
2017,07,12,00,47,14.60
2017,07,12,00,48,14.60
2017,07,12,00,49,14.60
2017,07,12,00,50,14.50
2017,07,12,00,51,14.50
2017,07,12,00,52,14.50
2017,07,12,00,53,14.50
2017,07,12,00,54,14.50
2017,07,12,00,55,14.60
2017,07,12,00,56,14.50
2017,07,12,00,57,14.50
2017,07,12,00,58,14.50
2017,07,12,00,59,14.50
2017,07,12,01,00,14.50
2017,07,12,01,01,14.50
2017,07,12,01,02,14.50
2017,07,12,01,03,14.50
2017,07,12,01,04,14.50
2017,07,12,01,05,14.50
2017,07,12,01,06,14.50
2017,07,12,01,07,14.50
2017,07,12,01,08,14.50
2017,07,12,01,09,14.50
2017,07,12,01,10,14.50
2017,07,12,01,11,14.50
2017,07,12,01,12,14.50
2017,07,12,01,13,14.50
2017,07,12,01,14,14.50
2017,07,12,01,15,14.40
2017,07,12,01,16,14.40
2017,07,12,01,17,14.40
2017,07,12,01,18,14.40
2017,07,12,01,19,14.40
2017,07,12,01,20,14.40
2017,07,12,01,21,14.30
2017,07,12,01,22,14.30
2017,07,12,01,23,14.40
2017,07,12,01,24,14.40
2017,07,12,01,25,14.40
2017,07,12,01,26,14.40
2017,07,12,01,27,14.50
2017,07,12,01,28,14.50
2017,07,12,01,29,14.50
2017,07,12,01,30,14.40
2017,07,12,01,31,14.40
2017,07,12,01,32,14.40
2017,07,12,01,33,14.40
2017,07,12,01,34,14.40
2017,07,12,01,35,14.30
2017,07,12,01,36,14.30
2017,07,12,01,37,14.30
2017,07,12,01,38,14.30
2017,07,12,01,39,14.30
2017,07,12,01,40,14.20
2017,07,12,01,41,14.20
2017,07,12,01,42,14.20
2017,07,12,01,43,14.10
2017,07,12,01,44,14.10
2017,07,12,01,45,14.10
2017,07,12,01,46,14.00
2017,07,12,01,47,14.00
2017,07,12,01,48,14.00
2017,07,12,01,49,14.00
2017,07,12,01,50,14.00
2017,07,12,01,51,14.00
2017,07,12,01,52,14.00
2017,07,12,01,53,14.00
2017,07,12,01,54,14.00
2017,07,12,01,55,14.00
2017,07,12,01,56,13.90
2017,07,12,01,57,13.90
2017,07,12,01,58,13.90
2017,07,12,01,59,13.80
2017,07,12,02,00,13.80
2017,07,12,02,01,13.80
2017,07,12,02,02,13.70
2017,07,12,02,03,13.70
2017,07,12,02,04,13.70
2017,07,12,02,05,13.70
2017,07,12,02,06,13.60
2017,07,12,02,07,13.60
2017,07,12,02,08,13.60
2017,07,12,02,09,13.50
2017,07,12,02,10,13.50
2017,07,12,02,11,13.50
2017,07,12,02,12,13.40
2017,07,12,02,13,13.40
2017,07,12,02,14,13.40
2017,07,12,02,15,13.40
2017,07,12,02,16,13.30
2017,07,12,02,17,13.30
2017,07,12,02,18,13.30
2017,07,12,02,19,13.30
2017,07,12,02,20,13.30
2017,07,12,02,21,13.30
2017,07,12,02,22,13.30
2017,07,12,02,23,13.20
2017,07,12,02,24,13.20
2017,07,12,02,25,13.20
2017,07,12,02,26,13.20
2017,07,12,02,27,13.20
2017,07,12,02,28,13.10
2017,07,12,02,29,13.10
2017,07,12,02,30,13.10
2017,07,12,02,31,13.00
2017,07,12,02,32,13.00
2017,07,12,02,33,13.00
2017,07,12,02,34,12.90
2017,07,12,02,35,12.90
2017,07,12,02,36,12.80
2017,07,12,02,37,12.80
2017,07,12,02,38,12.80
2017,07,12,02,39,12.70
2017,07,12,02,40,12.70
2017,07,12,02,41,12.70
2017,07,12,02,42,12.70
2017,07,12,02,43,12.70
2017,07,12,02,44,12.70
2017,07,12,02,45,12.70
2017,07,12,02,46,12.70
2017,07,12,02,47,12.70
2017,07,12,02,48,12.70
2017,07,12,02,49,12.60
2017,07,12,02,50,12.60
2017,07,12,02,51,12.60
2017,07,12,02,52,12.60
2017,07,12,02,53,12.60
2017,07,12,02,54,12.60
2017,07,12,02,55,12.60
2017,07,12,02,56,12.60
2017,07,12,02,57,12.60
2017,07,12,02,58,12.60
2017,07,12,02,59,12.60
2017,07,12,03,00,12.50
2017,07,12,03,01,12.50
2017,07,12,03,02,12.50
2017,07,12,03,03,12.50
2017,07,12,03,04,12.50
2017,07,12,03,05,12.40
2017,07,12,03,06,12.50
2017,07,12,03,07,12.40
2017,07,12,03,08,12.40
2017,07,12,03,09,12.40
2017,07,12,03,10,12.40
2017,07,12,03,11,12.40
2017,07,12,03,12,12.40
2017,07,12,03,13,12.40
2017,07,12,03,14,12.40
2017,07,12,03,15,12.40
2017,07,12,03,16,12.40
2017,07,12,03,17,12.40
2017,07,12,03,18,12.40
2017,07,12,03,19,12.40
2017,07,12,03,20,12.40
2017,07,12,03,21,12.40
2017,07,12,03,22,12.40
2017,07,12,03,23,12.40
2017,07,12,03,24,12.40
2017,07,12,03,25,12.40
2017,07,12,03,26,12.40
2017,07,12,03,27,12.40
2017,07,12,03,28,12.40
2017,07,12,03,29,12.30
2017,07,12,03,30,12.30
2017,07,12,03,31,12.30
2017,07,12,03,32,12.30
2017,07,12,03,33,12.30
2017,07,12,03,34,12.30
2017,07,12,03,35,12.20
2017,07,12,03,36,12.20
2017,07,12,03,37,12.20
2017,07,12,03,38,12.20
2017,07,12,03,39,12.10
2017,07,12,03,40,12.10
2017,07,12,03,41,12.10
2017,07,12,03,42,12.10
2017,07,12,03,43,12.20
2017,07,12,03,44,12.20
2017,07,12,03,45,12.20
2017,07,12,03,46,12.20
2017,07,12,03,47,12.20
2017,07,12,03,48,12.20
2017,07,12,03,49,12.20
2017,07,12,03,50,12.20
2017,07,12,03,51,12.20
2017,07,12,03,52,12.20
2017,07,12,03,53,12.20
2017,07,12,03,54,12.20
2017,07,12,03,55,12.10
2017,07,12,03,56,12.20
2017,07,12,03,57,12.10
2017,07,12,03,58,12.10
2017,07,12,03,59,12.10
2017,07,12,04,00,12.10
2017,07,12,04,01,12.20
2017,07,12,04,02,12.20
2017,07,12,04,03,12.20
2017,07,12,04,04,12.20
2017,07,12,04,05,12.20
2017,07,12,04,06,12.20
2017,07,12,04,07,12.20
2017,07,12,04,08,12.20
2017,07,12,04,09,12.20
2017,07,12,04,10,12.20
2017,07,12,04,11,12.20
2017,07,12,04,12,12.10
2017,07,12,04,13,12.10
2017,07,12,04,14,12.10
2017,07,12,04,15,12.00
2017,07,12,04,16,12.00
2017,07,12,04,17,12.00
2017,07,12,04,18,11.90
2017,07,12,04,19,11.90
2017,07,12,04,20,11.90
2017,07,12,04,21,11.90
2017,07,12,04,22,11.90
2017,07,12,04,23,11.90
2017,07,12,04,24,11.90
2017,07,12,04,25,11.90
2017,07,12,04,26,11.90
2017,07,12,04,27,11.90
2017,07,12,04,28,11.90
2017,07,12,04,29,11.90
2017,07,12,04,30,11.90
2017,07,12,04,31,11.90
2017,07,12,04,32,11.90
2017,07,12,04,33,11.90
2017,07,12,04,34,11.90
2017,07,12,04,35,11.90
2017,07,12,04,36,11.90
2017,07,12,04,37,11.90
2017,07,12,04,38,12.00
2017,07,12,04,39,12.00
2017,07,12,04,40,12.00
2017,07,12,04,41,12.10
2017,07,12,04,42,12.10
2017,07,12,04,43,12.10
2017,07,12,04,44,12.10
2017,07,12,04,45,12.10
2017,07,12,04,46,12.10
2017,07,12,04,47,12.00
2017,07,12,04,48,12.00
2017,07,12,04,49,12.00
2017,07,12,04,50,12.00
2017,07,12,04,51,11.90
2017,07,12,04,52,11.90
2017,07,12,04,53,11.90
2017,07,12,04,54,11.80
2017,07,12,04,55,11.80
2017,07,12,04,56,11.80
2017,07,12,04,57,11.80
2017,07,12,04,58,11.80
2017,07,12,04,59,11.80
2017,07,12,05,00,11.80
2017,07,12,05,01,11.80
2017,07,12,05,02,11.80
2017,07,12,05,03,11.80
2017,07,12,05,04,11.80
2017,07,12,05,05,11.80
2017,07,12,05,06,11.80
2017,07,12,05,07,11.70
2017,07,12,05,08,11.70
2017,07,12,05,09,11.70
2017,07,12,05,10,11.70
2017,07,12,05,11,11.80
2017,07,12,05,12,11.80
2017,07,12,05,13,11.80
2017,07,12,05,14,11.80
2017,07,12,05,15,11.80
2017,07,12,05,16,11.80
2017,07,12,05,17,11.80
2017,07,12,05,18,11.80
2017,07,12,05,19,11.80
2017,07,12,05,20,11.80
2017,07,12,05,21,11.80
2017,07,12,05,22,11.80
2017,07,12,05,23,11.80
2017,07,12,05,24,11.80
2017,07,12,05,25,11.80
2017,07,12,05,26,11.80
2017,07,12,05,27,11.80
2017,07,12,05,28,11.80
2017,07,12,05,29,11.80
2017,07,12,05,30,11.80
2017,07,12,05,31,11.80
2017,07,12,05,32,11.80
2017,07,12,05,33,11.80
2017,07,12,05,34,11.80
2017,07,12,05,35,11.70
2017,07,12,05,36,11.70
2017,07,12,05,37,11.70
2017,07,12,05,38,11.70
2017,07,12,05,39,11.70
2017,07,12,05,40,11.70
2017,07,12,05,41,11.70
2017,07,12,05,42,11.70
2017,07,12,05,43,11.70
2017,07,12,05,44,11.70
2017,07,12,05,45,11.70
2017,07,12,05,46,11.70
2017,07,12,05,47,11.70
2017,07,12,05,48,11.80
2017,07,12,05,49,11.80
2017,07,12,05,50,11.80
2017,07,12,05,51,11.80
2017,07,12,05,52,11.80
2017,07,12,05,53,11.80
2017,07,12,05,54,11.80
2017,07,12,05,55,11.80
2017,07,12,05,56,11.80
2017,07,12,05,57,11.80
2017,07,12,05,58,11.80
2017,07,12,05,59,11.80
2017,07,12,06,00,11.80
2017,07,12,06,01,11.80
2017,07,12,06,02,11.80
2017,07,12,06,03,11.80
2017,07,12,06,04,11.90
2017,07,12,06,05,11.90
2017,07,12,06,06,11.90
2017,07,12,06,07,11.90
2017,07,12,06,08,11.90
2017,07,12,06,09,11.90
2017,07,12,06,10,11.90
2017,07,12,06,11,11.90
2017,07,12,06,12,11.90
2017,07,12,06,13,11.90
2017,07,12,06,14,11.90
2017,07,12,06,15,11.90
2017,07,12,06,16,11.90
2017,07,12,06,17,11.90
2017,07,12,06,18,11.90
2017,07,12,06,19,11.90
2017,07,12,06,20,12.00
2017,07,12,06,21,12.00
2017,07,12,06,22,12.10
2017,07,12,06,23,12.20
2017,07,12,06,24,12.20
2017,07,12,06,25,12.40
2017,07,12,06,26,12.40
2017,07,12,06,27,12.60
2017,07,12,06,28,12.60
2017,07,12,06,29,12.70
2017,07,12,06,30,12.80
2017,07,12,06,31,12.90
2017,07,12,06,32,13.00
2017,07,12,06,33,13.10
2017,07,12,06,34,13.20
2017,07,12,06,35,13.30
2017,07,12,06,36,13.30
2017,07,12,06,37,13.40
2017,07,12,06,38,13.50
2017,07,12,06,39,13.60
2017,07,12,06,40,13.70
2017,07,12,06,41,13.80
2017,07,12,06,42,13.80
2017,07,12,06,43,13.90
2017,07,12,06,44,14.00
2017,07,12,06,45,14.00
2017,07,12,06,46,14.10
2017,07,12,06,47,14.10
2017,07,12,06,48,14.20
2017,07,12,06,49,14.30
2017,07,12,06,50,14.40
2017,07,12,06,51,14.50
2017,07,12,06,52,14.50
2017,07,12,06,53,14.60
2017,07,12,06,54,14.70
2017,07,12,06,55,14.80
2017,07,12,06,56,14.90
2017,07,12,06,57,15.00
2017,07,12,06,58,15.00
2017,07,12,06,59,15.10
2017,07,12,07,00,15.20
2017,07,12,07,01,15.20
2017,07,12,07,02,15.20
2017,07,12,07,03,15.20
2017,07,12,07,04,15.30
2017,07,12,07,05,15.30
2017,07,12,07,06,15.30
2017,07,12,07,07,15.30
2017,07,12,07,08,15.30
2017,07,12,07,09,15.30
2017,07,12,07,10,15.40
2017,07,12,07,11,15.40
2017,07,12,07,12,15.50
2017,07,12,07,13,15.60
2017,07,12,07,14,15.70
2017,07,12,07,15,15.80
2017,07,12,07,16,15.90
2017,07,12,07,17,15.90
2017,07,12,07,18,15.90
2017,07,12,07,19,16.00
2017,07,12,07,20,16.10
2017,07,12,07,21,16.20
2017,07,12,07,22,16.20
2017,07,12,07,23,16.20
2017,07,12,07,24,16.20
2017,07,12,07,25,16.20
2017,07,12,07,26,16.10
2017,07,12,07,27,16.10
2017,07,12,07,28,16.00
2017,07,12,07,29,16.00
2017,07,12,07,30,16.00
2017,07,12,07,31,15.90
2017,07,12,07,32,16.00
2017,07,12,07,33,16.10
2017,07,12,07,34,16.20
2017,07,12,07,35,16.40
2017,07,12,07,36,16.50
2017,07,12,07,37,16.60
2017,07,12,07,38,16.60
2017,07,12,07,39,16.50
2017,07,12,07,40,16.50
2017,07,12,07,41,16.40
2017,07,12,07,42,16.40
2017,07,12,07,43,16.30
2017,07,12,07,44,16.30
2017,07,12,07,45,16.30
2017,07,12,07,46,16.30
2017,07,12,07,47,16.20
2017,07,12,07,48,16.20
2017,07,12,07,49,16.10
2017,07,12,07,50,16.10
2017,07,12,07,51,16.10
2017,07,12,07,52,16.10
2017,07,12,07,53,16.10
2017,07,12,07,54,16.20
2017,07,12,07,55,16.30
2017,07,12,07,56,16.30
2017,07,12,07,57,16.30
2017,07,12,07,58,16.30
2017,07,12,07,59,16.40
2017,07,12,08,00,16.40
2017,07,12,08,01,16.40
2017,07,12,08,02,16.40
2017,07,12,08,03,16.40
2017,07,12,08,04,16.50
2017,07,12,08,05,16.50
2017,07,12,08,06,16.50
2017,07,12,08,07,16.50
2017,07,12,08,08,16.50
2017,07,12,08,09,16.50
2017,07,12,08,10,16.50
2017,07,12,08,11,16.60
2017,07,12,08,12,16.70
2017,07,12,08,13,16.70
2017,07,12,08,14,16.70
2017,07,12,08,15,16.70
2017,07,12,08,16,16.70
2017,07,12,08,17,16.70
2017,07,12,08,18,16.70
2017,07,12,08,19,16.70
2017,07,12,08,20,16.60
2017,07,12,08,21,16.60
2017,07,12,08,22,16.60
2017,07,12,08,23,16.60
2017,07,12,08,24,16.60
2017,07,12,08,25,16.60
2017,07,12,08,26,16.50
2017,07,12,08,27,16.50
2017,07,12,08,28,16.50
2017,07,12,08,29,16.60
2017,07,12,08,30,16.60
2017,07,12,08,31,16.70
2017,07,12,08,32,16.80
2017,07,12,08,33,16.90
2017,07,12,08,34,17.00
2017,07,12,08,35,17.10
2017,07,12,08,36,17.20
2017,07,12,08,37,17.30
2017,07,12,08,38,17.30
2017,07,12,08,39,17.30
2017,07,12,08,40,17.30
2017,07,12,08,41,17.40
2017,07,12,08,42,17.50
2017,07,12,08,43,17.60
2017,07,12,08,44,17.70
2017,07,12,08,45,17.70
2017,07,12,08,46,17.70
2017,07,12,08,47,17.80
2017,07,12,08,48,17.80
2017,07,12,08,49,17.80
2017,07,12,08,50,17.70
2017,07,12,08,51,17.70
2017,07,12,08,52,17.70
2017,07,12,08,53,17.60
2017,07,12,08,54,17.70
2017,07,12,08,55,17.70
2017,07,12,08,56,17.70
2017,07,12,08,57,17.70
2017,07,12,08,58,17.60
2017,07,12,08,59,17.60
2017,07,12,09,00,17.70
2017,07,12,09,01,17.80
2017,07,12,09,02,17.80
2017,07,12,09,03,17.80
2017,07,12,09,04,17.80
2017,07,12,09,05,17.90
2017,07,12,09,06,17.90
2017,07,12,09,07,18.00
2017,07,12,09,08,18.00
2017,07,12,09,09,17.90
2017,07,12,09,10,18.00
2017,07,12,09,11,18.00
2017,07,12,09,12,18.10
2017,07,12,09,13,18.20
2017,07,12,09,14,18.30
2017,07,12,09,15,18.30
2017,07,12,09,16,18.40
2017,07,12,09,17,18.50
2017,07,12,09,18,18.40
2017,07,12,09,19,18.30
2017,07,12,09,20,18.30
2017,07,12,09,21,18.30
2017,07,12,09,22,18.20
2017,07,12,09,23,18.10
2017,07,12,09,24,18.10
2017,07,12,09,25,18.10
2017,07,12,09,26,18.10
2017,07,12,09,27,18.20
2017,07,12,09,28,18.30
2017,07,12,09,29,18.50
2017,07,12,09,30,18.60
2017,07,12,09,31,18.80
2017,07,12,09,32,19.00
2017,07,12,09,33,19.10
2017,07,12,09,34,19.30
2017,07,12,09,35,19.40
2017,07,12,09,36,19.40
2017,07,12,09,37,19.40
2017,07,12,09,38,19.40
2017,07,12,09,39,19.30
2017,07,12,09,40,19.30
2017,07,12,09,41,19.40
2017,07,12,09,42,19.50
2017,07,12,09,43,19.50
2017,07,12,09,44,19.60
2017,07,12,09,45,19.60
2017,07,12,09,46,19.70
2017,07,12,09,47,19.70
2017,07,12,09,48,19.80
2017,07,12,09,49,19.80
2017,07,12,09,50,19.80
2017,07,12,09,51,19.80
2017,07,12,09,52,19.60
2017,07,12,09,53,19.40
2017,07,12,09,54,19.10
2017,07,12,09,55,18.80
2017,07,12,09,56,18.70
2017,07,12,09,57,18.70
2017,07,12,09,58,18.60
2017,07,12,09,59,18.50
2017,07,12,10,00,18.40
2017,07,12,10,01,18.40
2017,07,12,10,02,18.30
2017,07,12,10,03,18.20
2017,07,12,10,04,18.00
2017,07,12,10,05,17.90
2017,07,12,10,06,17.80
2017,07,12,10,07,17.80
2017,07,12,10,08,17.80
2017,07,12,10,09,17.80
2017,07,12,10,10,17.80
2017,07,12,10,11,17.80
2017,07,12,10,12,17.90
2017,07,12,10,13,17.90
2017,07,12,10,14,18.00
2017,07,12,10,15,18.10
2017,07,12,10,16,18.20
2017,07,12,10,17,18.20
2017,07,12,10,18,18.20
2017,07,12,10,19,18.20
2017,07,12,10,20,18.30
2017,07,12,10,21,18.20
2017,07,12,10,22,18.10
2017,07,12,10,23,18.10
2017,07,12,10,24,18.20
2017,07,12,10,25,18.20
2017,07,12,10,26,18.20
2017,07,12,10,27,18.20
2017,07,12,10,28,18.20
2017,07,12,10,29,18.20
2017,07,12,10,30,18.20
2017,07,12,10,31,18.20
2017,07,12,10,32,18.20
2017,07,12,10,33,18.20
2017,07,12,10,34,18.20
2017,07,12,10,35,18.30
2017,07,12,10,36,18.30
2017,07,12,10,37,18.30
2017,07,12,10,38,18.30
2017,07,12,10,39,18.40
2017,07,12,10,40,18.40
2017,07,12,10,41,18.50
2017,07,12,10,42,18.60
2017,07,12,10,43,18.60
2017,07,12,10,44,18.60
2017,07,12,10,45,18.60
2017,07,12,10,46,18.60
2017,07,12,10,47,18.60
2017,07,12,10,48,18.60
2017,07,12,10,49,18.60
2017,07,12,10,50,18.60
2017,07,12,10,51,18.60
2017,07,12,10,52,18.60
2017,07,12,10,53,18.70
2017,07,12,10,54,18.60
2017,07,12,10,55,18.60
2017,07,12,10,56,18.50
2017,07,12,10,57,18.50
2017,07,12,10,58,18.50
2017,07,12,10,59,18.50
2017,07,12,11,00,18.60
2017,07,12,11,01,18.60
2017,07,12,11,02,18.60
2017,07,12,11,03,18.70
2017,07,12,11,04,18.70
2017,07,12,11,05,18.70
2017,07,12,11,06,18.80
2017,07,12,11,07,18.90
2017,07,12,11,08,18.90
2017,07,12,11,09,19.00
2017,07,12,11,10,19.10
2017,07,12,11,11,19.20
2017,07,12,11,12,19.20
2017,07,12,11,13,19.10
2017,07,12,11,14,19.10
2017,07,12,11,15,19.10
2017,07,12,11,16,19.10
2017,07,12,11,17,19.10
2017,07,12,11,18,19.20
2017,07,12,11,19,19.30
2017,07,12,11,20,19.40
2017,07,12,11,21,19.40
2017,07,12,11,22,19.40
2017,07,12,11,23,19.40
2017,07,12,11,24,19.50
2017,07,12,11,25,19.60
2017,07,12,11,26,19.60
2017,07,12,11,27,19.60
2017,07,12,11,28,19.70
2017,07,12,11,29,19.70
2017,07,12,11,30,19.60
2017,07,12,11,31,19.60
2017,07,12,11,32,19.50
2017,07,12,11,33,19.40
2017,07,12,11,34,19.30
2017,07,12,11,35,19.20
2017,07,12,11,36,19.30
2017,07,12,11,37,19.30
2017,07,12,11,38,19.40
2017,07,12,11,39,19.40
2017,07,12,11,40,19.50
2017,07,12,11,41,19.50
2017,07,12,11,42,19.60
2017,07,12,11,43,19.60
2017,07,12,11,44,19.70
2017,07,12,11,45,19.80
2017,07,12,11,46,19.70
2017,07,12,11,47,19.70
2017,07,12,11,48,19.70
2017,07,12,11,49,19.60
2017,07,12,11,50,19.50
2017,07,12,11,51,19.50
2017,07,12,11,52,19.40
2017,07,12,11,53,19.40
2017,07,12,11,54,19.50
2017,07,12,11,55,19.50
2017,07,12,11,56,19.50
2017,07,12,11,57,19.50
2017,07,12,11,58,19.40
2017,07,12,11,59,19.40
2017,07,12,12,00,19.30
2017,07,12,12,01,19.30
2017,07,12,12,02,19.30
2017,07,12,12,03,19.30
2017,07,12,12,04,19.30
2017,07,12,12,05,19.30
2017,07,12,12,06,19.30
2017,07,12,12,07,19.30
2017,07,12,12,08,19.30
2017,07,12,12,09,19.40
2017,07,12,12,10,19.50
2017,07,12,12,11,19.50
2017,07,12,12,12,19.40
2017,07,12,12,13,19.40
2017,07,12,12,14,19.40
2017,07,12,12,15,19.50
2017,07,12,12,16,19.50
2017,07,12,12,17,19.50
2017,07,12,12,18,19.50
2017,07,12,12,19,19.50
2017,07,12,12,20,19.50
2017,07,12,12,21,19.60
2017,07,12,12,22,19.60
2017,07,12,12,23,19.70
2017,07,12,12,24,19.70
2017,07,12,12,25,19.80
2017,07,12,12,26,19.80
2017,07,12,12,27,19.90
2017,07,12,12,28,19.90
2017,07,12,12,29,20.00
2017,07,12,12,30,19.90
2017,07,12,12,31,19.90
2017,07,12,12,32,19.80
2017,07,12,12,33,19.80
2017,07,12,12,34,19.70
2017,07,12,12,35,19.70
2017,07,12,12,36,19.60
2017,07,12,12,37,19.70
2017,07,12,12,38,19.60
2017,07,12,12,39,19.60
2017,07,12,12,40,19.50
2017,07,12,12,41,19.50
2017,07,12,12,42,19.60
2017,07,12,12,43,19.70
2017,07,12,12,44,19.70
2017,07,12,12,45,19.70
2017,07,12,12,46,19.80
2017,07,12,12,47,19.80
2017,07,12,12,48,19.90
2017,07,12,12,49,19.80
2017,07,12,12,50,19.80
2017,07,12,12,51,19.80
2017,07,12,12,52,19.80
2017,07,12,12,53,19.80
2017,07,12,12,54,19.80
2017,07,12,12,55,19.80
2017,07,12,12,56,19.90
2017,07,12,12,57,20.00
2017,07,12,12,58,20.20
2017,07,12,12,59,20.30
2017,07,12,13,00,20.30
2017,07,12,13,01,20.50
2017,07,12,13,02,20.60
2017,07,12,13,03,20.50
2017,07,12,13,04,20.50
2017,07,12,13,05,20.50
2017,07,12,13,06,20.40
2017,07,12,13,07,20.40
2017,07,12,13,08,20.40
2017,07,12,13,09,20.30
2017,07,12,13,10,20.40
2017,07,12,13,11,20.40
2017,07,12,13,12,20.50
2017,07,12,13,13,20.70
2017,07,12,13,14,20.80
2017,07,12,13,15,20.90
2017,07,12,13,16,20.90
2017,07,12,13,17,21.00
2017,07,12,13,18,21.00
2017,07,12,13,19,21.00
2017,07,12,13,20,20.80
2017,07,12,13,21,20.60
2017,07,12,13,22,20.50
2017,07,12,13,23,20.30
2017,07,12,13,24,20.20
2017,07,12,13,25,20.20
2017,07,12,13,26,20.10
2017,07,12,13,27,20.10
2017,07,12,13,28,20.10
2017,07,12,13,29,20.10
2017,07,12,13,30,20.00
2017,07,12,13,31,20.10
2017,07,12,13,32,20.10
2017,07,12,13,33,20.20
2017,07,12,13,34,20.30
2017,07,12,13,35,20.50
2017,07,12,13,36,20.50
2017,07,12,13,37,20.40
2017,07,12,13,38,20.30
2017,07,12,13,39,20.20
2017,07,12,13,40,20.20
2017,07,12,13,41,20.20
2017,07,12,13,42,20.30
2017,07,12,13,43,20.30
2017,07,12,13,44,20.30
2017,07,12,13,45,20.20
2017,07,12,13,46,20.20
2017,07,12,13,47,20.20
2017,07,12,13,48,20.20
2017,07,12,13,49,20.20
2017,07,12,13,50,20.20
2017,07,12,13,51,20.20
2017,07,12,13,52,20.20
2017,07,12,13,53,20.30
2017,07,12,13,54,20.30
2017,07,12,13,55,20.30
2017,07,12,13,56,20.20
2017,07,12,13,57,20.20
2017,07,12,13,58,20.20
2017,07,12,13,59,20.30
2017,07,12,14,00,20.30
2017,07,12,14,01,20.20
2017,07,12,14,02,20.10
2017,07,12,14,03,20.20
2017,07,12,14,04,20.20
2017,07,12,14,05,20.10
2017,07,12,14,06,20.00
2017,07,12,14,07,19.80
2017,07,12,14,08,19.70
2017,07,12,14,09,19.60
2017,07,12,14,10,19.50
2017,07,12,14,11,19.40
2017,07,12,14,12,19.40
2017,07,12,14,13,19.30
2017,07,12,14,14,19.40
2017,07,12,14,15,19.40
2017,07,12,14,16,19.40
2017,07,12,14,17,19.40
2017,07,12,14,18,19.40
2017,07,12,14,19,19.40
2017,07,12,14,20,19.50
2017,07,12,14,21,19.50
2017,07,12,14,22,19.60
2017,07,12,14,23,19.70
2017,07,12,14,24,19.80
2017,07,12,14,25,20.00
2017,07,12,14,26,20.20
2017,07,12,14,27,20.30
2017,07,12,14,28,20.30
2017,07,12,14,29,20.50
2017,07,12,14,30,20.50
2017,07,12,14,31,20.50
2017,07,12,14,32,20.50
2017,07,12,14,33,20.60
2017,07,12,14,34,20.70
2017,07,12,14,35,20.80
2017,07,12,14,36,20.90
2017,07,12,14,37,21.00
2017,07,12,14,38,21.00
2017,07,12,14,39,21.10
2017,07,12,14,40,21.20
2017,07,12,14,41,21.20
2017,07,12,14,42,21.30
2017,07,12,14,43,21.50
2017,07,12,14,44,21.60
2017,07,12,14,45,21.70
2017,07,12,14,46,21.60
2017,07,12,14,47,21.50
2017,07,12,14,48,21.30
2017,07,12,14,49,21.20
2017,07,12,14,50,21.10
2017,07,12,14,51,21.00
2017,07,12,14,52,21.00
2017,07,12,14,53,21.10
2017,07,12,14,54,21.10
2017,07,12,14,55,21.10
2017,07,12,14,56,21.20
2017,07,12,14,57,21.30
2017,07,12,14,58,21.30
2017,07,12,14,59,21.20
2017,07,12,15,00,21.20
2017,07,12,15,01,21.30
2017,07,12,15,02,21.30
2017,07,12,15,03,21.40
2017,07,12,15,04,21.40
2017,07,12,15,05,21.50
2017,07,12,15,06,21.50
2017,07,12,15,07,21.50
2017,07,12,15,08,21.50
2017,07,12,15,09,21.40
2017,07,12,15,10,21.40
2017,07,12,15,11,21.40
2017,07,12,15,12,21.40
2017,07,12,15,13,21.50
2017,07,12,15,14,21.50
2017,07,12,15,15,21.50
2017,07,12,15,16,21.50
2017,07,12,15,17,21.40
2017,07,12,15,18,21.30
2017,07,12,15,19,21.30
2017,07,12,15,20,21.40
2017,07,12,15,21,21.50
2017,07,12,15,22,21.60
2017,07,12,15,23,21.70
2017,07,12,15,24,21.80
2017,07,12,15,25,21.90
2017,07,12,15,26,21.90
2017,07,12,15,27,21.90
2017,07,12,15,28,22.00
2017,07,12,15,29,22.00
2017,07,12,15,30,22.00
2017,07,12,15,31,21.90
2017,07,12,15,32,21.90
2017,07,12,15,33,21.90
2017,07,12,15,34,21.90
2017,07,12,15,35,22.00
2017,07,12,15,36,22.10
2017,07,12,15,37,22.10
2017,07,12,15,38,22.10
2017,07,12,15,39,22.10
2017,07,12,15,40,22.00
2017,07,12,15,41,21.90
2017,07,12,15,42,21.90
2017,07,12,15,43,21.90
2017,07,12,15,44,21.80
2017,07,12,15,45,21.80
2017,07,12,15,46,21.70
2017,07,12,15,47,21.70
2017,07,12,15,48,21.70
2017,07,12,15,49,21.70
2017,07,12,15,50,21.80
2017,07,12,15,51,21.80
2017,07,12,15,52,21.80
2017,07,12,15,53,21.80
2017,07,12,15,54,21.80
2017,07,12,15,55,21.80
2017,07,12,15,56,21.80
2017,07,12,15,57,21.80
2017,07,12,15,58,21.70
2017,07,12,15,59,21.70
2017,07,12,16,00,21.70
2017,07,12,16,01,21.70
2017,07,12,16,02,21.70
2017,07,12,16,03,21.80
2017,07,12,16,04,21.90
2017,07,12,16,05,22.00
2017,07,12,16,06,22.10
2017,07,12,16,07,22.20
2017,07,12,16,08,22.10
2017,07,12,16,09,22.00
2017,07,12,16,10,21.90
2017,07,12,16,11,21.80
2017,07,12,16,12,21.90
2017,07,12,16,13,21.90
2017,07,12,16,14,22.00
2017,07,12,16,15,22.10
2017,07,12,16,16,22.20
2017,07,12,16,17,22.30
2017,07,12,16,18,22.30
2017,07,12,16,19,22.30
2017,07,12,16,20,22.10
2017,07,12,16,21,22.00
2017,07,12,16,22,22.00
2017,07,12,16,23,22.00
2017,07,12,16,24,21.90
2017,07,12,16,25,21.80
2017,07,12,16,26,21.90
2017,07,12,16,27,21.90
2017,07,12,16,28,21.90
2017,07,12,16,29,21.90
2017,07,12,16,30,21.90
2017,07,12,16,31,22.00
2017,07,12,16,32,22.00
2017,07,12,16,33,22.00
2017,07,12,16,34,22.00
2017,07,12,16,35,22.00
2017,07,12,16,36,22.00
2017,07,12,16,37,22.00
2017,07,12,16,38,22.10
2017,07,12,16,39,22.20
2017,07,12,16,40,22.30
2017,07,12,16,41,22.40
2017,07,12,16,42,22.50
2017,07,12,16,43,22.60
2017,07,12,16,44,22.70
2017,07,12,16,45,22.80
2017,07,12,16,46,22.80
2017,07,12,16,47,22.90
2017,07,12,16,48,22.90
2017,07,12,16,49,22.80
2017,07,12,16,50,22.80
2017,07,12,16,51,22.90
2017,07,12,16,52,23.00
2017,07,12,16,53,23.10
2017,07,12,16,54,23.20
2017,07,12,16,55,23.10
2017,07,12,16,56,23.10
2017,07,12,16,57,23.10
2017,07,12,16,58,22.90
2017,07,12,16,59,22.90
2017,07,12,17,00,22.80
2017,07,12,17,01,22.80
2017,07,12,17,02,22.80
2017,07,12,17,03,22.90
2017,07,12,17,04,22.90
2017,07,12,17,05,23.00
2017,07,12,17,06,23.10
2017,07,12,17,07,23.20
2017,07,12,17,08,23.20
2017,07,12,17,09,23.30
2017,07,12,17,10,23.30
2017,07,12,17,11,23.30
2017,07,12,17,12,23.30
2017,07,12,17,13,23.20
2017,07,12,17,14,23.10
2017,07,12,17,15,23.10
2017,07,12,17,16,23.00
2017,07,12,17,17,23.00
2017,07,12,17,18,23.00
2017,07,12,17,19,22.90